Lexington Weather

Lexington, Massachusetts, USA

72°F
9/22/2021 1:56pm 
  • Lexington Conditions: Overcast
  • Temperature: 72.3°F / 22.4°CColder 2.5°F than last hour.
  • Dew Point: 68.5°FIncreased 0.3°Fsince last hour.
  • Relative Humidity: 88%Increased 8.0% since last hour.
  • Wind: Wind from NNW NNW 4 mph, 10-min avg: 3 mph, gust: 10 mph
  • Barometer: 30.10 in Steady
  • Visibility: 10 miles
  • Rain Today: 0.00 in
  •   

Regional Weather Roundup
for Boston / Norton, MA

        
000
ASUS41 KBOX 170204
RWRBOX

REGIONAL WEATHER ROUNDUP
NATIONAL WEATHER SERVICE BOSTON/NORTON MA
1000 PM EDT THU SEP 16 2021

NOTE:  "FAIR" INDICATES FEW OR NO CLOUDS BELOW 12,000 FEET WITH NO 
SIGNIFICANT WEATHER AND/OR OBSTRUCTIONS TO VISIBILITY.

MAZALL-170300-
EASTERN MASSACHUSETTS
  
CITY           SKY/WX    TMP DP  RH WIND       PRES   REMARKS
BOSTON         CLOUDY    67  62  84 N6        30.33F                  
BEVERLY        CLOUDY    64  38  38 NE3       30.33F                  
LAWRENCE       MOCLDY    63  60  90 E3        30.36F                  
BEDFORD        CLOUDY    64  61  90 NE6       30.33S                  
BLUE HILL      NOT AVBL                                               
NORWOOD        CLOUDY    66  62  87 N5        30.32F                  
MARSHFIELD     CLOUDY    66  63  88 VRB3      30.32S                  
PLYMOUTH       CLOUDY    65  63  93 NE6       30.32S                  
TAUNTON        CLOUDY    66  63  90 CALM      30.31F                  
NEW BEDFORD    CLOUDY    66  64  93 NE5       30.30S                  
$$

MAZALL-170300-
CAPE COD AND THE ISLANDS
  
CITY           SKY/WX    TMP DP  RH WIND       PRES   REMARKS
FALMOUTH       NOT AVBL                                               
HYANNIS        CLOUDY    66  66 100 NE9       30.28F                  
CHATHAM        CLOUDY    66  65  96 NE9       30.31F                  
PROVINCETOWN   CLOUDY    65  63  93 NE9       30.32F                  
NANTUCKET      CLOUDY    69  67  93 NE9       30.28S                  
MARTHAS VNYRD  CLOUDY    68  67  96 NE9       30.28F                  
$$
 
MAZALL-170300-
CENTRAL AND WESTERN MASSACHUSETTS
  
CITY           SKY/WX    TMP DP  RH WIND       PRES   REMARKS
WORCESTER      CLOUDY    62  58  86 E5        30.35F                  
FITCHBURG      CLOUDY    64  58  80 CALM      30.35F                  
ORANGE         CLOUDY    65  60  84 E7        30.35S                  
SPRINGFIELD    CLOUDY    67  62  85 NE7       30.31S                  
WESTFIELD      CLOUDY    68  65  90 NE6       30.31S                  
NORTH ADAMS    CLOUDY    68  62  81 SE6       30.32R                  
PITTSFIELD     CLOUDY    66  62  87 NE6       30.31R                  
$$
 
RIZALL-170300-
RHODE ISLAND
  
CITY           SKY/WX    TMP DP  RH WIND       PRES   REMARKS
PROVIDENCE     CLOUDY    67  63  87 N9        30.31F                  
NEWPORT        CLOUDY    66  63  90 NE9       30.29F                  
BLOCK ISLAND   CLOUDY    67  64  90 NE9G17    30.29S                  
SMITHFIELD     CLOUDY    63  62  97 NE6       30.33F                  
WESTERLY       MOCLDY    65  65 100 N6        30.28S                  
$$
 
CTZALL-170300-
CONNECTICUT
  
CITY           SKY/WX    TMP DP  RH WIND       PRES   REMARKS
BRADLEY INTL   CLOUDY    69  64  84 NE9       30.30F                  
HARTFORD       CLOUDY    71  64  78 E6        30.29S                  
BRIDGEPORT     CLOUDY    72  67  84 E14       30.26S                  
DANBURY        CLOUDY    71  65  81 E6        30.29S                  
GROTON         PTCLDY    69  64  84 NE8       30.27S                  
NEW HAVEN      CLOUDY    72  67  84 E7        30.27S                  
CHESTER        CLOUDY    70  66  88 E6        30.29S                  
MERIDEN        CLOUDY    70  64  81 CALM      30.28S                  
WILLIMANTIC    CLOUDY    66  63  90 NE7       30.32R                  
OXFORD         CLOUDY    67  65  93 E8        30.30S                  
$$

MEZ002-015-021-024-NHZ003-005-008-011-012-014-VTZ005-008-170300-
NORTHERN NEW ENGLAND
  
CITY           SKY/WX    TMP DP  RH WIND       PRES   REMARKS
PORTLAND ME    PTCLDY    60  55  83 CALM      30.38S                  
BANGOR ME      PTCLDY    56  54  93 CALM      30.36S                  
CONCORD NH     MOCLDY    61  55  81 CALM      30.35F                  
MANCHESTER NH  CLOUDY    63  57  81 CALM      30.34F                  
NASHUA NH      CLOUDY    63  62  97 CALM      30.36F                  
PORTSMOUTH NH  MOCLDY    63  57  81 E5        30.36F                  
JAFFREY NH     CLOUDY    63  58  83 VRB5      30.36S                  
KEENE NH       CLOUDY    63  61  93 CALM      30.35R                  
BURLINGTON VT  PTCLDY    62  58  86 CALM      30.28S                  
MT. WASHINGTON PTCLDY    48  32  53 SW21G28     N/A                   
$$

NYZ052-076-170300-
EASTERN NEW YORK
  
CITY           SKY/WX    TMP DP  RH WIND       PRES   REMARKS
ALBANY         MOCLDY    67  63  87 E5        30.28S                  
NEW YORK CITY  CLOUDY    74  66  76 E10       30.23S                  
$$
 
ANZALL-170300-
MARINE OBSERVATIONS
  
STATION/POSITION TIME  TEMP    WIND        PRES    VSBY  WAVE
                       AIR SEA DIR/SP/G                  HT/PER
                 (UTC) (F)     (DEG/KT/KT) (MB)    (MI)  (FT/S)
BOSTON BUOY      0140      66   40/  8/ 10 1027.1F
BUZZARDS BAY     0100           40/ 18/ 20 1026.6F
NANTUCKET SOUND  0140   69 72   40/ 14/ 17 1025.6F
MASS BAY-STELLWA 0104   64      90/  8/ 10 1027.2F  1 7/8  2/ 5
ISLE OF SHOALS   0100   63     110/ 11/ 12 1027.5R
S OF BLOCK IS    0126      69                N/A           3/ 6
$$

......................KEY.........................
  SKY/WX - SKY CONDITION/PRESENT WEATHER
  TMP    - TEMPERATURE IN FAHRENHEIT
  DWPT   - DEWPOINT IN FAHRENHEIT
  RH     - RELATIVE HUMIDITY IN PERCENT
  WIND   - DIRECTION AND SPEED IN MPH
  PRES   - MEAN SEA LEVEL PRESSURE IN INCHES OF HG
  WCI    - WIND CHILL INDEX
  VSB    - VISIBILITY IN MILES
  HX     - HEAT INDEX
  TC     - TEMPERATURE IN CELSIUS
  VRB    - VARIABLE WIND DIRECTION
  N/A    - NOT AVAILABLE
  
      

Other recent Regional Weather Roundups

Wed Sep 22, 1:04pm

Wed Sep 22, 12:05pm

Wed Sep 22, 11:04am

Wed Sep 22, 10:04am

Wed Sep 22, 9:04am

Wed Sep 22, 8:04am

Wed Sep 22, 7:04am

Wed Sep 22, 6:04am

Wed Sep 22, 5:04am

Wed Sep 22, 4:04am

Wed Sep 22, 3:04am

Wed Sep 22, 2:04am

Wed Sep 22, 1:04am

Wed Sep 22, 12:04am

Tue Sep 21, 11:04pm

Tue Sep 21, 10:04pm

Tue Sep 21, 9:04pm

Tue Sep 21, 8:04pm

Tue Sep 21, 7:04pm

Tue Sep 21, 6:04pm

Tue Sep 21, 5:04pm

Tue Sep 21, 4:04pm

Tue Sep 21, 3:04pm

Tue Sep 21, 2:04pm

Tue Sep 21, 1:04pm

Tue Sep 21, 12:04pm

Tue Sep 21, 11:04am

Tue Sep 21, 10:04am

Tue Sep 21, 9:04am

Tue Sep 21, 8:04am

Tue Sep 21, 7:04am

Tue Sep 21, 6:04am

Tue Sep 21, 5:04am

Tue Sep 21, 4:04am

Tue Sep 21, 3:04am

Tue Sep 21, 2:04am

Tue Sep 21, 1:04am

Tue Sep 21, 12:04am

Mon Sep 20, 11:04pm

Mon Sep 20, 10:04pm

Mon Sep 20, 9:04pm

Mon Sep 20, 8:04pm

Mon Sep 20, 7:04pm

Mon Sep 20, 6:04pm

Mon Sep 20, 5:04pm

Mon Sep 20, 4:04pm

Mon Sep 20, 3:04pm

Mon Sep 20, 2:04pm

Mon Sep 20, 1:04pm

Mon Sep 20, 12:04pm

Mon Sep 20, 11:04am

Mon Sep 20, 10:04am

Mon Sep 20, 9:04am

Mon Sep 20, 7:04am

Mon Sep 20, 6:04am

Mon Sep 20, 5:04am

Mon Sep 20, 4:04am

Mon Sep 20, 3:04am

Mon Sep 20, 2:04am

Mon Sep 20, 1:04am

Mon Sep 20, 12:04am

Sun Sep 19, 11:04pm

Sun Sep 19, 10:04pm

Sun Sep 19, 9:04pm

Sun Sep 19, 8:04pm

Sun Sep 19, 7:04pm

Sun Sep 19, 6:04pm

Sun Sep 19, 5:04pm

Sun Sep 19, 4:04pm

Sun Sep 19, 3:04pm

Sun Sep 19, 2:05pm

Sun Sep 19, 1:04pm

Sun Sep 19, 12:04pm

Sun Sep 19, 11:04am

Sun Sep 19, 10:05am

Sun Sep 19, 9:04am

Sun Sep 19, 8:04am

Sun Sep 19, 7:04am

Sun Sep 19, 6:04am

Sun Sep 19, 5:04am

Sun Sep 19, 4:04am

Sun Sep 19, 3:04am

Sun Sep 19, 2:04am

Sun Sep 19, 1:04am

Sun Sep 19, 12:04am

Sat Sep 18, 11:05pm

Sat Sep 18, 10:04pm

Sat Sep 18, 9:04pm

Sat Sep 18, 8:04pm

Sat Sep 18, 7:04pm

Sat Sep 18, 6:04pm

Sat Sep 18, 5:04pm

Sat Sep 18, 4:04pm

Sat Sep 18, 3:04pm

Sat Sep 18, 2:04pm

Sat Sep 18, 1:04pm

Sat Sep 18, 12:04pm

Sat Sep 18, 11:04am

Sat Sep 18, 10:04am

Sat Sep 18, 9:04am

Sat Sep 18, 8:04am

Sat Sep 18, 7:04am

Sat Sep 18, 6:04am

Sat Sep 18, 5:04am

Sat Sep 18, 4:04am

Sat Sep 18, 3:04am

Sat Sep 18, 2:04am

Sat Sep 18, 1:04am

Sat Sep 18, 12:04am

Fri Sep 17, 11:04pm

Fri Sep 17, 10:04pm

Fri Sep 17, 9:04pm

Fri Sep 17, 8:04pm

Fri Sep 17, 7:04pm

Fri Sep 17, 6:04pm

Fri Sep 17, 5:04pm

Fri Sep 17, 4:04pm

Fri Sep 17, 3:04pm

Fri Sep 17, 2:04pm

Fri Sep 17, 1:04pm

Fri Sep 17, 12:05pm

Fri Sep 17, 11:04am

Fri Sep 17, 10:04am

Fri Sep 17, 9:04am

Fri Sep 17, 8:04am

Fri Sep 17, 7:04am

Fri Sep 17, 6:04am

Fri Sep 17, 5:04am

Fri Sep 17, 4:04am

Fri Sep 17, 3:04am

Fri Sep 17, 2:04am

Fri Sep 17, 1:04am

Fri Sep 17, 12:04am

Thu Sep 16, 11:04pm

Thu Sep 16, 9:04pm

Thu Sep 16, 8:04pm

Thu Sep 16, 7:04pm

Thu Sep 16, 6:04pm

Thu Sep 16, 5:04pm

Thu Sep 16, 4:04pm

Thu Sep 16, 3:04pm

Thu Sep 16, 2:04pm

Thu Sep 16, 1:05pm

Thu Sep 16, 12:04pm

Thu Sep 16, 11:05am

Thu Sep 16, 10:05am

Thu Sep 16, 9:04am

Thu Sep 16, 8:04am

Thu Sep 16, 7:04am

Thu Sep 16, 6:04am

Thu Sep 16, 5:04am

Thu Sep 16, 4:04am

Thu Sep 16, 3:04am

Thu Sep 16, 2:04am

Thu Sep 16, 1:04am

Thu Sep 16, 12:04am

Wed Sep 15, 11:04pm

Wed Sep 15, 10:04pm

Wed Sep 15, 9:04pm

Wed Sep 15, 8:04pm

Wed Sep 15, 7:04pm

Wed Sep 15, 6:04pm

Wed Sep 15, 5:05pm

Wed Sep 15, 4:04pm

Wed Sep 15, 3:04pm

Wed Sep 15, 2:04pm

Meta data:

ID: 23c2c57d-75ed-45eb-80f2-25e898aade9f
Link: https://api.weather.gov/products/23c2c57d-75ed-45eb-80f2-25e898aade9f